Weather in Novyye Salmany

Russia / Republic of Tatarstan     54°57′28″N   49°46′20″E
temp.,
°C
wind,
m/s
gust,
m/s
humid.,
%
clouds,
%
prec.,
mm/h
press.,
hPa
HPBL,
m
12 may, wed
wed1200:00+16se22635 0.0 102618
03:00+15ese22669 0.0 102611
06:00+17se236394 0.0 102779
09:00+22ese224842 0.0 1027459
12:00+25ese363841 0.0 10262312
15:00+25se573636 0.0 10252770
18:00+22sse375647 0.0 1025207
21:00+17se355580 0.0 102666
13 may, thu
thu1300:00+15se355818 0.0 102666
03:00+14ese466014 0.0 102676
06:00+16ese496349 0.0 1026245
09:00+21ese61047100 0.0 1025627
12:00+24sse793960 0.0 10251548
15:00+21ne366182 0.0 1024270
18:00+22se6125566 0.0 1022340
21:00+18se5146471 0.0 1022282
14 may, fri
fri1400:00+16sse5136311 0.0 1022251
03:00+15sse5136847 0.8 1022233
06:00+17sse5126675 0.0 1023312
09:00+22s584989 0.0 1023557
12:00+26s683891 0.0 10221036
15:00+28ssw5103541 0.0 10221645
18:00+23ssw41151100 0.0 1021279
21:00+18sse412595 0.0 1021216
15 may, sat
sat1500:00+17s5135671 0.0 1021235
03:00+16s51254100 0.0 1021182
06:00+17s5125880 0.0 1021237
09:00+23s6104478 0.0 1021440
12:00+27ssw7103111 0.0 10211062
15:00+28ssw611358 0.0 10201454
18:00+23s495025 0.0 1019213
21:00+19s49480 0.0 1019118
16 may, sun
sun1600:00+18s510505 0.0 1018138
03:00+17s410611 0.0 1019149
06:00+19s512640 0.0 1019259
09:00+25s711463 0.0 1018650
12:00+28ssw811350 0.0 10171992
15:00+28ssw7124021 0.0 10162479
18:00+24ssw495578 0.0 1016204
21:00+20ssw45540 0.0 101658